Theta_e
304 304 304 304 305 305 305 305 305 305 305 305 305 305 305 303 302 301 302 301 301 301 301 301 302 302 302 302 303 303 303 304 304 305 305 307 306 306 306 307 307 307 306 307 311 311 314 318 318 317 316 315 314 314 315 317 317 316 316 315 315 315 315 316 317 318 318 318 319 319 320 324 333 339 341 341 342 344 345 347 347 346 345 344 346 345 346 348
304 304 304 304 305 304 304 304 305 304 304 305 305 305 305 304 303 301 302 302 301 301 301 301 301 301 302 302 302 302 303 304 304 305 306 307 307 307 307 307 307 306 306 308 312 314 316 316 316 316 315 315 314 315 316 317 317 316 317 316 315 316 316 317 318 319 319 318 319 320 320 322 332 338 339 338 338 342 341 344 347 347 345 344 345 345 346 347
303 304 305 304 305 304 304 304 305 304 304 304 304 304 304 304 303 302 301 302 301 301 301 301 301 301 301 302 302 302 303 303 304 306 307 307 307 307 307 306 307 306 306 310 312 314 315 315 315 315 315 315 314 315 315 317 317 316 318 316 315 317 317 317 318 318 318 318 319 319 319 321 330 333 336 335 334 337 335 338 345 348 347 345 345 345 346 346
303 304 304 304 304 304 303 304 304 304 305 304 304 304 304 304 304 302 301 302 302 301 301 301 301 301 301 301 301 302 303 305 308 308 307 307 307 307 307 307 307 306 306 310 312 313 314 315 315 314 315 314 315 315 315 317 316 317 318 315 317 317 316 316 317 319 318 318 317 318 319 318 323 325 331 334 330 331 332 334 338 346 348 345 345 345 345 346
303 303 303 303 303 304 304 303 303 303 304 304 304 304 304 304 304 302 301 301 302 301 301 301 301 301 301 301 301 301 303 308 310 309 309 308 308 307 307 307 307 306 306 308 310 312 314 314 314 314 314 315 316 314 314 317 317 317 317 315 318 317 315 317 317 318 317 317 318 318 317 317 319 321 328 333 329 330 336 337 339 345 347 344 345 345 345 345
303 303 303 303 303 303 303 303 302 303 303 304 304 304 304 304 304 303 302 301 301 301 301 301 301 300 300 301 301 300 303 308 309 310 311 309 308 307 307 307 307 307 305 307 309 313 314 314 314 314 314 314 315 314 314 317 316 316 316 316 318 316 316 318 317 317 317 318 317 317 316 316 318 320 328 333 331 335 339 340 342 347 345 344 345 345 345 345
303 303 303 303 302 302 302 302 302 303 303 303 304 304 304 303 303 302 301 301 301 301 300 300 300 300 300 300 300 301 304 308 307 311 313 310 309 309 307 306 308 308 306 308 311 313 314 314 314 313 313 314 315 315 315 316 316 315 315 317 317 317 317 317 317 317 317 317 317 317 316 317 318 319 327 331 333 338 340 342 345 344 343 344 345 345 345 345
303 303 303 303 302 301 302 302 303 303 303 303 303 304 304 303 304 302 301 302 301 300 300 300 300 300 300 299 301 304 305 306 305 308 308 308 308 307 306 305 307 309 307 309 311 312 314 314 314 313 313 313 314 315 316 316 316 314 314 317 317 317 317 316 317 317 317 317 316 316 316 317 317 318 322 326 336 340 342 345 344 343 342 344 345 345 345 345
302 302 302 302 302 302 302 302 302 303 303 303 303 303 303 303 304 303 301 301 301 300 300 300 300 299 300 299 302 306 306 306 305 305 305 305 306 306 306 305 307 310 308 310 311 311 313 313 313 313 312 314 314 315 317 315 315 315 314 316 317 317 317 316 317 317 317 316 317 316 316 317 316 317 319 325 338 341 342 346 345 344 344 345 345 344 344 345
302 302 302 302 302 302 301 301 302 302 302 303 303 303 303 303 303 302 301 301 300 300 300 300 300 300 300 300 304 307 305 306 305 306 306 305 306 306 306 305 307 310 310 311 311 311 312 312 312 313 313 314 314 314 317 314 315 317 316 316 317 316 317 317 317 317 317 317 317 316 316 317 316 317 317 325 337 340 344 347 346 345 346 345 344 343 343 344
302 302 302 302 302 301 301 301 301 302 303 303 303 302 303 303 302 301 300 300 300 300 300 299 299 300 299 301 306 307 305 305 305 306 306 306 308 308 307 307 308 310 312 311 311 311 311 311 312 312 312 313 314 315 316 315 315 317 316 316 316 317 317 317 317 317 317 317 317 316 317 317 315 316 319 329 338 342 345 347 347 347 346 345 344 343 343 343
301 301 302 302 301 301 301 300 301 302 303 303 303 303 303 302 302 301 300 300 299 300 299 299 299 299 299 302 305 306 306 305 305 307 309 309 309 309 309 309 310 311 312 312 311 311 311 312 312 311 312 313 313 314 315 315 315 316 316 316 316 316 316 316 317 316 317 317 316 316 316 316 316 316 322 333 341 344 345 346 346 347 347 345 344 343 342 344
301 301 302 302 301 301 300 300 301 302 302 302 302 302 302 302 302 300 299 300 299 299 299 299 299 299 301 306 306 303 304 304 304 307 309 311 310 310 310 310 310 311 312 312 311 312 312 311 311 311 313 314 314 314 314 315 315 315 315 315 315 315 315 316 317 316 317 316 315 316 314 315 317 317 323 335 342 344 342 341 342 345 346 346 344 342 342 344
301 302 302 302 301 300 300 300 301 302 301 301 301 301 301 301 301 300 300 300 299 299 299 298 299 301 304 306 304 303 303 303 303 304 306 310 309 308 310 310 309 311 313 312 312 312 311 311 311 312 314 315 315 314 314 316 314 314 314 315 315 314 314 317 317 316 317 315 315 316 314 316 318 317 323 334 340 338 335 334 337 343 346 346 345 342 343 344
301 302 302 302 301 300 300 300 301 301 301 301 301 301 301 300 299 299 299 299 300 299 298 300 300 304 307 306 302 304 303 302 304 303 304 307 307 308 311 311 310 312 311 312 313 311 311 312 312 313 314 316 316 313 313 315 314 314 313 312 313 313 314 316 317 317 317 315 315 316 314 317 318 317 325 333 336 336 331 329 333 341 345 345 344 343 343 344
300 301 301 302 301 300 299 301 301 301 301 301 301 301 299 299 299 299 298 299 299 297 299 303 303 304 308 307 304 304 303 304 304 304 303 304 305 308 312 312 312 313 312 312 312 311 311 312 313 313 314 316 315 313 313 313 313 314 313 311 312 313 314 314 315 317 317 316 316 316 316 318 318 318 327 335 335 333 331 329 332 340 345 345 344 343 344 343
299 301 301 301 301 299 299 301 301 301 300 300 300 300 298 298 298 298 297 298 299 298 301 305 304 305 307 306 305 306 305 305 305 305 304 303 304 308 312 313 314 314 314 312 311 311 311 312 314 314 315 316 314 314 314 312 312 313 313 313 313 313 314 313 314 316 317 315 316 316 317 317 317 319 328 334 333 329 328 329 333 338 342 344 343 343 343 343
299 300 301 300 300 299 300 301 301 301 299 299 299 298 299 299 298 298 297 299 302 302 304 306 305 307 308 305 306 307 307 307 306 306 306 304 304 308 312 313 315 315 314 313 311 311 311 313 315 313 314 315 315 315 313 312 312 313 312 313 313 313 314 314 314 315 315 316 316 316 317 318 316 320 328 332 331 329 327 330 334 337 340 343 343 341 343 343
299 299 299 299 299 299 300 301 300 300 299 299 298 299 300 300 300 301 300 302 305 306 307 307 306 308 307 307 307 306 307 307 307 308 307 305 305 308 312 313 314 314 314 313 312 312 312 312 314 312 313 314 316 316 314 314 315 314 313 314 313 312 313 315 316 316 316 316 315 316 316 317 317 320 328 334 335 334 332 334 337 338 340 342 342 341 342 343
299 299 299 299 299 299 300 300 300 300 299 300 300 301 303 304 305 305 303 303 305 305 307 307 306 305 306 307 307 306 306 307 307 309 309 306 306 310 313 314 314 314 314 314 312 312 312 312 312 313 313 314 315 315 315 315 315 315 314 313 314 312 313 315 315 315 317 316 315 317 317 317 320 320 324 332 336 335 333 335 337 337 338 340 341 341 342 342
299 299 299 299 299 299 300 300 300 299 299 299 301 302 304 306 307 307 306 305 303 302 304 306 306 306 306 306 307 306 306 307 308 310 310 307 307 311 313 314 315 314 315 315 313 312 312 312 312 312 314 314 315 316 317 317 315 315 314 313 313 312 313 315 315 316 316 316 316 317 317 317 321 322 323 328 332 333 334 337 337 337 338 339 340 341 341 341
299 298 299 299 299 299 300 300 300 299 299 299 300 301 303 304 306 305 306 307 306 303 302 303 304 304 304 304 305 304 304 307 307 309 310 308 309 312 314 315 314 314 315 314 314 312 311 311 312 312 314 314 315 316 317 317 315 314 314 313 312 313 315 315 316 316 316 317 317 316 316 318 322 323 325 329 332 334 336 338 338 339 338 337 339 340 340 340
299 298 298 298 299 299 300 300 299 299 299 300 301 301 302 303 304 304 305 307 308 307 305 304 304 304 303 303 304 303 304 306 306 309 310 309 309 312 315 314 314 314 314 313 313 313 311 311 312 313 314 316 317 316 316 316 316 314 314 312 312 313 314 313 314 317 316 317 318 316 317 320 323 324 326 330 333 334 334 336 337 338 339 338 339 339 339 340
299 298 297 298 299 299 300 299 299 300 300 300 300 300 302 303 304 304 306 308 308 308 308 307 306 305 305 305 305 303 304 305 306 309 310 310 310 312 314 315 314 313 313 313 313 313 312 312 313 314 315 316 316 315 315 315 314 315 315 313 312 314 314 314 315 316 316 317 318 317 316 319 321 323 326 329 331 332 332 334 336 337 338 338 339 339 340 340
299 298 297 298 298 299 300 299 300 300 300 300 300 300 302 303 304 304 307 309 309 309 308 308 308 308 307 307 306 305 305 305 305 308 310 310 310 312 314 314 314 313 312 312 312 313 313 313 314 314 313 314 314 314 315 315 314 314 315 315 314 314 314 315 315 315 315 314 317 317 314 316 321 323 326 329 330 332 333 335 336 335 337 337 338 339 340 340
299 298 298 298 298 299 299 300 300 300 300 301 301 302 303 304 303 304 307 309 308 309 308 308 308 308 308 308 307 307 307 306 306 308 310 311 310 312 314 314 315 314 313 312 312 312 313 314 314 313 312 313 314 314 314 314 314 313 315 315 315 315 315 315 315 313 313 313 317 317 314 315 320 323 327 330 330 332 332 334 335 334 335 335 337 338 339 340
299 298 298 298 298 299 300 301 301 300 301 302 302 303 303 303 303 303 308 308 307 309 308 307 307 307 308 308 307 307 307 307 307 307 310 311 311 312 313 314 314 314 314 313 311 312 313 314 313 312 313 313 314 314 314 314 313 313 315 315 315 315 314 315 314 313 314 316 317 317 315 315 317 323 328 329 331 332 332 332 332 333 334 336 337 337 338 339
299 298 298 298 299 299 300 301 300 300 302 302 302 303 303 303 303 305 309 308 307 309 309 308 307 307 308 309 308 307 308 309 307 307 310 311 311 312 313 314 314 314 314 312 311 312 314 313 312 312 313 313 313 314 315 314 314 315 316 314 315 315 315 315 314 314 315 316 314 315 315 314 316 323 327 328 330 332 331 331 330 331 333 334 335 335 336 336
299 298 298 298 299 299 300 300 300 300 301 301 302 302 302 302 305 308 309 308 309 309 309 308 307 307 309 309 308 308 309 310 309 308 309 310 312 312 312 314 314 313 314 313 312 313 314 314 313 313 313 313 313 314 315 314 314 316 315 315 315 315 315 315 314 314 315 315 313 314 314 312 315 322 323 325 329 330 331 330 329 330 332 332 332 332 333 334
299 298 298 298 298 299 300 300 300 300 300 301 301 302 302 304 307 309 307 308 310 309 308 308 308 309 310 309 309 308 308 310 311 310 310 311 312 312 312 313 314 313 313 313 312 314 314 314 314 314 314 314 314 314 315 315 315 316 315 315 315 315 315 315 315 315 315 314 314 314 314 313 314 318 322 326 329 330 331 329 328 330 331 331 330 330 331 332
299 298 297 298 299 299 300 300 300 300 300 301 301 301 304 307 309 309 307 309 311 310 308 308 308 310 309 309 309 308 307 310 312 311 310 311 311 312 312 313 313 313 313 313 312 314 315 314 314 315 315 315 315 314 315 315 315 315 314 313 314 314 315 314 314 315 315 314 314 314 315 314 314 319 325 329 328 329 329 329 328 329 329 330 330 329 329 330
298 297 297 298 299 299 300 300 300 300 300 301 301 303 307 309 308 308 309 309 311 311 310 309 308 309 310 309 309 308 308 310 312 311 311 311 311 312 312 312 313 313 313 313 313 313 314 314 314 315 315 316 315 313 314 314 314 314 314 313 313 312 314 314 313 314 315 314 315 316 314 314 319 324 328 329 328 328 329 329 329 329 329 329 329 329 329 329
297 296 297 298 299 300 300 300 300 300 301 301 302 306 309 308 307 308 308 309 311 311 312 311 310 309 310 309 309 308 308 310 312 312 311 311 311 311 311 312 313 313 313 313 313 313 313 314 314 314 315 315 314 314 313 313 313 313 313 313 312 313 314 314 314 314 315 314 316 316 313 317 325 328 328 329 328 329 330 330 330 329 329 329 329 328 328 328
297 297 298 299 299 299 300 300 300 300 300 301 304 308 309 308 308 308 307 309 310 310 311 311 311 310 310 310 310 308 308 310 311 312 311 311 311 311 311 312 312 313 314 313 313 313 313 314 314 314 315 315 314 314 314 314 313 313 314 313 312 312 314 314 313 314 315 315 316 316 314 319 326 328 328 330 330 329 330 329 329 329 328 328 327 327 326 326
297 297 298 299 299 299 299 299 299 300 300 302 306 308 308 308 308 308 308 309 309 310 310 310 311 310 309 310 310 309 309 311 312 312 311 311 311 312 312 312 312 313 313 314 314 313 312 313 314 314 315 314 314 314 315 314 313 314 314 313 313 313 313 313 314 316 315 315 316 317 320 324 327 327 328 330 329 329 329 329 328 327 327 326 326 325 325 324
298 299 299 299 299 299 299 299 299 299 300 304 307 308 308 308 308 308 309 309 309 309 309 310 311 311 310 310 310 310 309 311 312 312 312 312 311 312 312 312 313 313 313 314 314 313 312 312 313 313 314 314 314 314 315 314 314 314 313 313 314 315 315 314 315 317 315 315 318 321 325 328 328 328 328 328 329 328 328 328 327 326 326 325 325 324 323 323
299 299 299 300 300 300 299 299 299 299 301 305 307 307 307 307 307 308 309 309 308 308 310 312 312 311 311 310 309 309 309 310 312 312 312 311 311 312 312 312 313 313 313 314 314 314 313 312 313 313 313 313 315 314 314 315 315 313 312 313 314 315 317 315 314 315 314 316 320 320 324 327 328 328 328 328 329 329 328 327 326 325 325 324 324 323 322 322
299 299 300 300 301 301 300 299 299 300 303 306 307 308 307 306 307 307 308 308 307 308 310 312 313 311 310 310 310 309 308 310 311 312 312 311 312 312 312 312 313 313 314 314 314 314 313 312 313 313 313 313 314 314 314 314 314 314 313 314 314 314 315 315 314 315 314 316 321 321 322 323 324 327 328 328 329 329 328 326 325 325 325 324 323 322 322 321
300 300 302 303 303 303 301 299 299 302 305 306 306 307 307 306 307 308 308 308 307 307 310 311 312 312 311 310 310 309 309 310 311 312 312 312 312 313 312 312 313 313 314 314 314 314 314 313 312 313 313 313 313 313 313 313 314 314 314 314 314 314 314 314 314 315 313 315 320 322 321 319 321 327 329 327 328 328 327 326 325 324 324 323 322 321 321 320
300 303 305 304 305 304 300 299 301 303 305 306 306 307 306 306 307 308 308 308 307 307 309 309 309 310 311 310 310 310 309 310 311 312 312 312 313 313 312 312 312 313 314 314 313 314 314 314 313 313 313 313 313 313 313 314 313 313 313 313 314 314 315 315 315 314 313 313 318 320 319 319 324 329 328 327 327 327 327 325 324 323 322 321 321 320 319 319
302 305 306 304 304 302 299 300 303 303 304 306 306 306 306 307 307 308 307 307 307 306 307 307 307 308 309 310 310 310 309 310 311 311 312 313 313 313 313 312 313 312 313 313 313 314 314 314 314 313 312 312 313 313 315 315 314 314 314 313 313 314 314 315 314 314 314 313 315 317 317 321 327 328 327 326 327 327 326 324 323 322 320 319 318 318 317 317
303 306 305 304 302 299 300 303 303 303 304 305 306 306 307 307 307 307 307 306 306 306 306 306 306 307 309 310 310 310 309 310 310 311 313 313 313 314 314 313 313 313 313 312 313 315 316 314 313 313 313 314 315 315 316 316 315 314 314 314 314 314 314 313 313 314 314 315 316 315 315 323 327 326 327 328 327 327 325 323 322 319 318 318 317 316 316 316
305 305 304 302 300 300 303 304 302 303 304 305 307 307 307 307 307 306 306 306 306 306 306 307 307 308 310 309 310 309 310 310 310 310 312 312 313 316 316 315 314 312 313 312 313 315 316 314 314 313 314 315 315 316 315 315 315 314 314 315 314 314 315 314 314 315 315 314 315 313 315 324 327 326 329 329 327 327 324 322 320 318 317 317 316 316 316 316
305 305 303 301 300 302 305 303 302 303 303 305 307 307 306 307 306 305 305 306 306 306 306 308 308 309 310 309 309 309 310 312 312 311 312 313 316 318 318 317 315 312 312 314 314 315 314 314 315 314 314 316 316 315 315 314 315 314 315 316 315 314 316 316 316 316 314 314 314 312 316 325 328 327 328 328 327 326 323 321 319 317 316 315 315 316 316 316
304 305 303 301 301 303 305 304 305 303 303 306 306 305 306 306 305 305 305 306 306 304 306 308 308 309 308 308 310 311 311 312 314 314 315 315 318 319 319 319 316 313 315 317 316 315 314 316 317 315 315 316 316 316 316 314 315 315 316 317 316 315 315 316 316 313 314 316 315 312 318 327 329 327 327 326 325 323 321 319 318 318 317 315 315 315 315 315
304 305 304 302 302 304 305 306 307 305 304 305 305 305 305 305 305 305 304 304 304 304 306 307 308 307 307 308 311 313 312 312 314 315 315 317 319 320 320 320 317 316 319 319 317 316 316 318 320 319 317 316 317 319 319 317 315 317 317 316 316 317 317 316 315 313 315 317 314 315 324 328 328 328 326 324 322 320 319 319 318 318 317 315 314 313 313 313
304 305 304 303 302 303 304 306 307 306 306 306 305 305 305 304 304 304 304 304 304 306 306 306 307 308 310 313 314 314 313 312 313 313 315 318 320 320 321 319 318 319 319 317 318 318 315 317 321 323 321 320 320 322 322 320 317 317 317 317 317 319 319 317 314 315 316 314 314 321 329 328 327 328 325 321 320 319 319 318 317 317 315 314 314 313 312 312
304 306 305 304 304 303 303 304 306 307 308 307 305 306 307 305 303 305 307 307 306 307 308 308 308 308 310 314 315 315 313 312 314 316 317 319 320 321 321 320 320 321 317 315 319 319 315 316 321 323 322 321 321 320 321 321 320 320 320 320 319 319 321 319 318 320 318 314 317 324 329 327 327 327 323 321 321 320 318 317 316 315 315 314 314 313 313 313
305 306 306 305 306 306 303 305 307 307 308 308 306 307 310 309 306 307 309 309 309 308 308 309 310 310 311 313 315 316 314 314 317 319 319 320 322 322 321 320 320 320 317 316 319 320 318 318 321 323 323 321 320 320 320 320 321 322 322 322 320 321 323 323 323 326 323 319 323 329 329 327 326 324 322 320 319 318 316 315 315 314 314 313 313 313 312 312
304 306 306 305 306 308 306 306 308 308 308 310 308 307 310 311 311 310 310 310 310 310 310 309 311 313 313 314 315 316 316 317 320 321 321 321 322 321 321 320 318 318 317 318 318 321 320 319 321 324 322 321 321 321 321 321 322 322 322 321 322 322 322 322 324 327 325 325 329 330 328 324 319 318 318 316 315 315 314 314 314 313 313 312 312 312 312 310
303 304 306 305 306 308 307 307 309 309 308 309 309 310 311 312 312 311 310 310 310 311 311 311 313 314 314 315 315 316 317 318 319 319 320 320 319 319 319 319 318 317 318 319 319 320 320 319 322 323 320 321 321 321 322 322 322 322 321 321 322 323 323 323 324 326 327 329 330 328 327 322 315 313 314 313 313 313 312 313 312 312 312 312 312 312 311 310
303 304 305 305 306 308 307 307 308 309 308 309 310 311 312 312 311 311 311 310 310 310 310 312 314 314 315 317 316 315 316 317 317 317 317 317 317 317 317 318 318 317 318 320 320 320 319 319 320 319 319 321 321 321 323 322 320 321 320 318 320 321 322 322 322 323 325 328 327 325 323 319 313 312 312 311 311 311 311 311 311 311 312 312 312 311 310 310
Wind_Speed
11 12 12 10 10 11 11 11 11 11 10 10 10 10 10 11 11 10 9 9 10 11 11 11 10 11 11 11 12 12 12 13 13 16 21 19 11 8 9 8 6 6 8 7 8 12 15 14 13 12 10 9 8 8 10 8 9 8 6 6 5 6 4 4 5 2 3 4 6 8 8 3 5 5 3 5 5 8 8 6 8 7 7 8 11 13 14 14
11 11 11 10 10 11 11 11 11 12 11 10 10 10 10 11 11 10 10 10 10 11 11 10 10 11 11 11 11 12 12 13 16 20 22 18 13 11 10 11 11 9 8 9 11 14 15 15 14 14 11 9 8 9 10 9 10 9 5 5 6 4 2 2 1 3 3 4 7 7 8 5 2 4 5 7 8 10 9 8 9 8 8 9 11 12 13 13
11 10 10 10 11 12 11 11 11 11 11 11 11 10 10 11 11 10 10 10 11 12 11 10 10 10 10 10 10 11 10 13 16 18 19 17 15 15 13 12 14 13 11 10 12 13 12 13 15 14 12 9 8 9 10 10 10 10 6 6 5 2 2 2 1 2 4 6 6 7 8 4 3 1 4 6 9 10 9 10 10 8 10 12 12 12 12 13
11 10 11 11 11 12 11 11 11 9 10 11 11 10 10 11 11 10 10 10 11 12 11 9 9 10 9 9 8 8 8 11 11 10 13 15 14 13 14 14 15 15 13 11 12 13 10 11 14 13 11 9 9 10 10 11 10 7 7 7 1 1 2 4 2 1 4 6 7 8 7 3 3 2 4 6 10 9 8 8 6 9 14 15 14 13 12 14
12 11 12 12 12 12 12 12 11 9 9 10 11 11 10 10 10 10 10 10 11 12 10 9 9 9 8 7 6 4 5 6 3 6 8 8 9 8 9 11 16 17 15 13 13 14 12 13 14 13 11 8 9 10 11 13 10 5 9 10 3 2 4 3 3 1 4 6 8 8 7 5 5 3 4 7 7 4 3 4 3 8 16 16 16 14 13 14
13 13 13 13 14 13 13 15 12 10 10 10 10 10 10 10 10 10 9 10 11 11 10 8 8 7 7 6 5 3 5 4 3 3 6 10 9 7 5 5 12 17 17 15 14 15 15 15 15 13 11 9 10 10 10 14 12 7 9 11 9 7 5 2 2 1 4 7 8 8 7 7 6 2 2 6 1 8 7 4 5 10 14 16 16 14 14 15
14 14 14 14 16 15 16 15 11 11 12 10 10 10 11 10 10 10 10 11 11 11 10 8 8 6 6 5 5 5 11 11 3 2 5 8 6 4 2 3 7 15 19 18 17 18 18 19 17 14 11 8 10 11 9 13 14 10 7 8 10 9 8 6 4 3 5 7 8 8 8 7 4 0 1 4 1 8 6 6 9 10 12 15 15 13 13 14
14 14 15 15 16 16 15 13 10 10 12 11 11 11 11 9 9 9 10 11 10 10 10 8 7 6 5 3 4 7 14 17 12 10 9 9 8 7 8 6 5 13 20 21 20 20 19 20 18 14 11 9 10 11 10 11 12 13 9 7 8 8 8 7 6 5 5 7 6 6 7 5 2 2 1 5 4 5 5 9 10 10 12 14 14 13 12 13
13 14 15 17 18 16 15 13 11 10 11 11 12 12 11 10 9 9 10 10 10 10 9 8 7 5 5 3 4 8 12 14 13 14 14 15 14 12 11 8 7 11 20 22 20 20 18 19 19 15 11 9 9 10 11 10 8 12 14 10 8 8 7 6 6 6 6 6 5 4 4 2 0 2 4 5 4 4 6 9 11 11 13 14 13 12 12 12
14 14 15 16 18 17 15 15 13 10 10 12 12 12 12 11 10 10 10 9 10 10 8 7 6 4 4 4 6 7 8 10 9 9 10 11 13 12 10 9 8 12 20 21 20 21 19 17 17 13 9 7 9 9 13 11 4 7 14 13 10 9 8 7 7 7 6 7 6 6 4 3 2 5 5 7 4 5 9 10 11 12 13 14 13 12 11 11
14 15 15 16 17 17 16 15 14 10 9 11 13 13 12 12 10 9 9 9 10 10 8 8 6 6 5 5 9 8 7 8 7 7 7 8 9 8 10 9 9 15 20 21 21 21 18 14 12 11 6 6 9 9 13 12 5 4 9 11 11 10 10 10 9 8 7 6 5 6 5 5 5 6 5 9 7 8 10 11 11 12 13 13 13 11 10 10
15 15 15 15 17 18 18 17 13 11 10 11 13 13 14 13 10 9 9 9 10 10 8 8 6 6 4 7 16 15 10 10 8 6 4 4 5 7 10 8 10 15 17 19 20 18 15 10 12 13 6 5 9 7 9 13 9 6 6 7 9 9 10 12 11 9 8 5 4 6 6 7 9 6 7 10 9 10 11 12 12 11 13 14 13 11 10 9
16 15 15 16 17 20 21 17 12 12 12 12 13 14 15 13 9 9 9 9 10 9 8 8 7 6 4 9 18 18 14 14 13 11 6 3 2 4 7 8 13 15 14 15 16 15 13 9 13 15 7 6 9 3 4 11 10 8 8 7 6 7 9 13 12 9 8 5 4 8 7 8 11 9 10 10 9 11 12 13 13 12 12 13 12 11 9 9
15 15 15 16 18 20 18 13 11 12 13 14 14 14 14 12 9 9 9 9 9 9 7 7 6 4 6 13 18 17 16 17 17 17 12 7 4 4 4 8 13 14 12 11 11 12 11 9 12 13 8 8 7 5 5 10 8 8 9 7 6 6 8 13 12 11 10 6 7 10 6 7 12 12 11 10 9 10 12 14 13 12 12 12 12 11 9 8
15 15 16 16 18 19 14 10 11 12 13 14 14 15 14 10 9 9 10 10 9 8 6 5 5 3 7 16 17 14 16 17 18 18 14 12 10 6 4 9 12 12 11 8 8 10 9 9 12 12 11 8 6 8 8 7 7 8 8 7 7 7 8 12 11 13 10 6 10 12 5 6 11 12 12 10 9 9 12 15 13 11 12 12 12 11 9 8
16 15 16 16 17 18 13 10 12 14 15 15 14 13 11 9 9 10 11 10 8 6 4 4 5 5 6 12 12 11 12 14 16 17 15 15 13 8 6 10 13 12 10 7 6 10 9 10 12 12 12 9 7 9 7 6 8 8 8 7 9 9 8 10 11 12 8 6 11 12 7 5 10 10 11 10 9 9 10 14 14 11 11 11 12 11 10 8
16 15 15 16 17 17 13 11 14 15 18 18 14 11 7 8 9 9 9 8 6 4 5 3 4 5 7 7 8 9 9 10 10 11 13 16 14 10 10 13 14 13 10 7 6 10 11 11 10 9 9 9 9 9 8 9 8 8 9 6 8 12 9 9 11 11 10 8 11 13 9 4 10 9 10 9 9 10 11 14 14 10 10 10 10 11 10 8
14 15 16 16 17 16 13 13 14 16 19 17 11 5 4 4 5 7 8 9 6 4 4 5 5 4 10 13 10 5 6 7 9 9 11 15 15 12 13 14 14 14 12 9 8 11 13 12 9 8 9 9 10 10 9 10 9 9 10 6 7 11 10 10 10 11 13 10 11 14 9 6 11 8 8 8 9 10 11 12 11 10 10 9 10 10 9 9
13 14 15 16 16 15 13 13 15 17 17 13 6 1 3 2 2 3 7 11 11 6 2 10 17 5 2 7 9 7 7 7 7 8 8 14 18 15 13 13 15 16 13 10 10 13 13 10 9 9 10 11 11 12 10 8 9 11 11 8 8 10 10 9 9 9 12 12 12 13 12 9 10 8 7 6 7 7 9 9 8 8 9 8 9 9 9 9
13 13 14 15 14 13 13 14 16 17 14 8 3 1 3 3 4 5 9 15 20 14 4 10 24 14 2 6 3 3 9 9 6 6 9 14 19 18 15 15 16 15 12 9 10 14 14 9 9 11 12 14 15 15 12 6 7 11 11 10 9 10 10 9 8 7 7 10 12 13 14 10 8 8 5 4 5 6 8 8 7 7 8 8 8 9 9 9
14 14 14 14 13 12 13 13 15 17 14 8 3 4 4 4 4 4 8 16 25 24 15 11 17 17 12 4 1 1 4 7 7 7 10 14 21 19 16 17 15 11 11 12 11 11 13 10 11 13 13 16 16 15 10 6 8 10 10 10 9 10 10 10 8 7 4 7 10 13 12 7 8 7 4 2 5 6 4 5 5 6 7 7 8 8 9 8
15 15 15 14 13 12 12 13 15 16 13 6 5 8 6 4 4 2 3 9 17 23 24 20 16 21 22 15 11 8 2 4 9 11 11 16 22 18 17 17 13 10 12 13 10 9 10 10 13 16 14 14 15 13 11 9 9 9 8 9 9 9 9 9 8 6 4 5 7 13 11 6 8 5 6 3 3 3 2 1 0 3 6 7 7 8 8 8
16 16 15 13 12 13 12 14 15 13 10 7 9 10 7 5 6 3 4 8 11 15 22 24 23 26 27 21 18 16 10 8 10 13 14 18 23 20 18 16 13 12 13 13 11 9 9 10 14 16 14 14 14 14 14 11 9 9 9 8 8 10 9 8 8 7 4 3 3 12 10 5 7 6 7 5 4 4 3 4 4 2 3 5 6 6 7 7
16 15 14 13 13 13 12 14 13 11 9 9 12 11 8 6 4 4 5 7 9 11 18 22 23 25 25 18 16 17 16 13 10 12 16 19 22 20 17 17 15 13 13 15 15 11 9 10 14 15 14 16 15 14 15 11 9 10 10 9 8 13 10 5 9 9 5 1 3 10 9 5 7 7 6 6 5 4 4 5 5 5 4 4 6 6 5 6
17 14 12 12 13 12 12 13 11 8 7 8 8 11 10 5 2 3 4 7 6 7 12 16 18 20 20 14 11 14 14 15 16 13 16 21 23 18 15 16 15 12 14 18 16 12 10 10 15 16 15 18 16 14 16 13 9 10 11 10 7 12 12 7 12 11 6 6 8 11 8 6 8 8 7 6 6 6 6 6 6 7 6 6 8 6 5 5
17 13 10 10 11 11 10 9 7 6 6 5 6 9 7 3 2 2 3 5 5 6 9 13 14 13 16 17 16 15 10 14 20 16 16 21 23 19 14 14 12 11 15 15 11 8 8 12 15 15 16 19 17 14 17 16 10 8 12 12 6 7 10 9 11 11 7 6 9 11 9 5 9 8 8 7 7 9 8 7 8 8 8 7 8 6 6 7
16 12 9 8 9 9 7 5 4 3 3 5 8 6 4 2 3 2 4 5 4 6 9 9 9 9 13 18 23 17 6 10 18 18 19 20 23 20 13 12 11 10 12 11 8 7 9 14 15 17 17 17 15 13 16 17 11 6 13 15 10 7 9 10 10 10 6 4 7 11 10 5 7 9 9 9 9 10 9 8 9 10 11 10 9 8 8 9
16 11 8 8 9 9 8 7 6 5 5 6 6 5 4 4 3 3 5 4 3 5 6 7 6 7 9 17 27 19 6 12 16 18 22 21 23 21 13 14 13 10 13 11 8 8 11 15 16 18 18 13 13 13 16 18 12 5 12 15 11 9 9 9 9 8 5 3 6 11 11 7 7 9 9 10 10 10 9 9 10 10 12 11 10 10 10 10
16 11 8 9 10 10 10 9 8 8 8 5 5 6 5 4 4 4 5 3 4 4 4 8 7 8 11 15 24 21 11 10 10 18 25 21 22 18 12 15 15 12 15 14 10 9 12 18 19 18 15 12 14 14 16 18 12 6 11 11 8 7 8 7 8 7 5 6 8 12 13 9 6 10 9 10 10 8 9 9 9 10 12 12 10 9 10 9
16 11 8 10 10 9 9 8 10 10 8 6 7 7 5 4 5 6 5 2 3 3 5 8 8 10 14 14 16 20 16 9 8 20 24 20 21 17 11 14 16 12 13 14 13 9 11 17 19 16 14 13 14 12 15 19 11 7 10 10 8 7 6 5 6 6 6 8 10 14 17 12 6 9 9 7 6 5 7 9 9 10 11 12 10 10 10 9
15 11 9 10 9 7 6 5 7 7 7 6 6 6 6 6 5 6 5 2 2 4 6 8 9 10 15 15 12 16 16 9 13 20 18 15 18 15 10 11 12 10 11 11 12 10 11 14 13 12 14 13 12 11 12 14 10 8 10 10 9 8 6 6 6 6 7 8 9 13 16 13 8 7 7 7 7 6 7 8 9 9 9 10 10 10 10 9
14 11 10 10 9 9 7 5 5 5 5 4 4 6 7 6 6 6 5 4 3 2 3 5 8 10 14 15 12 15 15 10 14 18 15 14 13 12 11 10 9 11 11 10 11 11 11 12 12 12 13 13 13 11 9 10 9 10 10 10 10 9 8 8 9 8 8 6 7 12 14 10 4 7 9 10 9 7 8 10 10 10 10 10 10 11 11 10
13 11 10 10 10 11 9 8 7 5 4 4 4 7 7 6 6 6 5 5 3 2 1 2 4 8 12 12 11 15 15 12 15 16 16 17 14 13 15 14 14 12 10 11 11 9 9 12 15 14 11 15 15 11 9 10 11 12 11 11 11 9 9 10 9 9 9 5 6 10 12 9 5 8 10 11 10 10 12 13 12 13 14 14 14 14 13 13
11 9 9 10 11 11 10 9 8 7 5 4 6 7 7 7 5 4 5 5 4 2 3 2 2 7 11 11 9 14 14 11 16 16 15 17 13 13 15 16 19 15 9 11 11 10 11 10 13 13 10 15 17 12 11 11 11 12 10 10 10 8 9 9 8 11 12 8 7 8 8 7 6 8 9 11 12 12 14 14 14 15 16 17 16 15 14 14
11 9 9 11 11 11 11 11 10 8 6 6 7 7 7 7 5 4 5 4 2 1 1 1 4 6 10 10 9 15 13 9 15 16 13 14 12 12 13 13 18 16 11 10 8 10 13 9 13 16 12 16 18 15 13 12 10 10 9 10 10 10 9 6 3 4 6 8 8 6 3 3 6 8 9 11 12 13 15 15 16 16 16 16 16 14 13 13
10 7 8 10 10 9 10 12 12 10 9 8 8 8 8 6 3 2 2 1 1 3 3 4 7 6 9 9 9 16 13 8 14 14 11 14 14 14 14 12 17 18 13 10 7 9 11 8 15 17 11 14 20 17 14 13 9 7 9 10 6 6 7 6 3 2 3 7 6 4 4 6 6 7 9 11 12 12 13 15 16 16 15 15 15 13 13 13
6 6 9 9 8 8 9 12 13 12 11 9 8 8 8 6 3 0 2 1 2 5 4 4 5 5 9 9 9 15 14 9 13 13 10 13 13 14 16 13 17 20 15 12 8 7 9 7 13 17 13 13 19 18 15 14 11 7 9 11 5 2 4 7 6 4 7 8 5 5 8 10 8 7 10 12 13 13 12 14 15 15 15 15 14 13 12 12
5 6 7 6 7 9 10 13 15 14 11 9 9 9 8 6 6 2 1 1 3 5 1 2 1 3 7 10 10 15 16 11 12 12 11 11 10 14 17 13 15 20 18 14 8 6 9 7 10 17 15 12 14 15 14 14 13 8 9 11 8 5 6 8 8 8 10 8 6 8 11 10 9 9 13 15 14 14 13 12 13 13 15 15 14 12 12 12
4 3 3 3 6 9 10 14 17 15 10 9 9 8 7 7 7 3 2 3 4 3 2 1 2 3 4 8 11 14 16 14 13 12 10 9 8 11 15 13 14 19 20 15 8 6 9 7 7 12 13 12 11 10 11 12 10 9 10 10 8 7 7 8 7 7 10 8 7 10 10 8 7 9 15 18 16 15 14 12 11 13 14 13 12 11 11 11
3 3 2 2 5 9 12 16 16 12 9 9 9 7 7 7 6 4 4 5 3 2 1 2 4 4 4 3 8 12 15 14 15 12 9 10 8 7 13 13 12 17 20 16 10 6 7 7 5 9 10 10 10 10 12 13 12 9 10 12 10 7 5 8 7 5 7 9 8 9 9 6 4 6 14 18 16 15 15 13 13 14 14 12 11 10 10 10
3 3 1 2 5 12 17 14 11 8 7 8 9 8 7 5 5 3 2 5 4 0 1 4 6 7 6 4 4 9 12 13 14 11 8 10 8 5 10 12 10 15 17 14 10 7 6 7 6 8 10 10 12 11 10 12 15 12 9 11 12 9 8 9 8 5 6 7 7 8 9 5 3 4 11 15 14 15 17 16 16 16 15 12 11 11 10 10
4 2 2 2 10 18 16 9 7 7 7 7 8 8 6 4 5 5 2 5 6 2 2 5 8 9 7 6 5 5 9 11 13 11 7 10 10 6 8 11 13 16 14 10 10 7 2 5 8 10 10 9 7 5 2 5 13 15 11 11 11 10 10 10 8 7 6 4 4 7 7 4 2 4 11 15 16 18 20 19 18 16 14 14 13 12 12 11
4 3 5 5 14 15 9 6 6 6 7 7 7 7 7 5 5 5 4 5 4 1 2 5 8 8 7 6 5 6 9 10 11 11 9 10 10 5 8 13 14 15 13 10 10 6 1 4 9 10 9 7 5 4 1 3 9 12 11 11 12 12 12 10 7 8 7 6 6 6 6 5 4 6 13 20 21 20 19 20 20 17 15 14 14 12 11 10
3 6 7 9 13 8 6 5 6 7 6 6 7 7 7 6 6 5 5 5 2 1 3 5 7 7 6 6 6 8 10 8 8 10 8 8 7 5 7 12 13 14 13 9 8 8 4 6 9 9 10 8 6 7 7 7 9 10 10 11 12 15 16 10 6 7 8 8 9 7 5 6 6 8 14 19 20 19 19 20 20 18 17 15 13 13 12 11
2 6 8 9 9 4 5 3 2 6 7 7 8 8 8 7 6 7 7 5 4 4 5 6 9 9 8 8 8 10 12 9 6 6 6 6 6 5 7 11 12 13 10 6 9 9 5 4 6 9 11 11 11 10 8 9 10 8 10 12 11 14 17 11 6 8 7 8 9 7 4 8 10 12 15 15 16 17 18 20 18 17 17 15 14 13 12 12
2 2 5 8 7 7 6 4 4 4 6 7 6 7 9 7 4 6 7 6 7 9 9 10 10 10 11 10 9 9 12 12 8 7 7 7 5 3 7 11 12 9 5 6 10 9 3 0 1 1 4 6 7 5 3 8 12 10 12 14 12 12 14 11 8 7 7 8 8 6 10 14 14 16 16 15 16 16 16 18 19 18 16 15 14 14 13 13
1 1 4 7 5 6 7 6 6 4 3 6 5 4 8 8 4 3 4 5 8 9 10 11 10 9 8 8 9 9 12 13 11 10 9 7 5 4 7 10 10 7 7 8 9 6 4 3 3 5 5 3 3 4 3 6 12 13 13 14 10 8 9 11 9 6 8 8 6 8 16 16 16 17 17 16 16 15 15 18 19 18 17 16 15 14 14 14
1 1 4 6 3 4 6 6 7 5 3 5 5 3 6 8 7 4 3 6 10 10 8 7 9 12 11 9 7 8 12 13 12 11 9 8 8 7 8 8 8 8 9 9 7 5 6 5 2 4 7 7 5 4 4 7 8 8 9 10 8 6 7 10 8 6 8 6 5 11 14 12 15 18 16 16 17 16 16 18 19 19 18 16 15 15 14 14
2 1 3 6 2 2 4 5 8 8 5 5 5 5 6 7 8 7 4 5 9 10 10 9 9 12 12 10 7 7 12 12 9 9 9 9 9 9 8 7 7 9 10 9 6 3 3 4 4 6 8 9 7 5 6 9 11 9 8 7 6 5 4 5 4 4 4 3 7 14 13 9 9 14 15 17 19 19 19 19 19 19 18 16 15 14 14 14
2 3 1 4 4 3 4 6 7 7 6 5 5 6 6 5 6 6 5 5 6 7 10 11 10 6 6 8 8 7 6 7 9 10 10 10 9 7 6 6 8 10 10 8 6 2 2 4 6 5 6 7 6 6 7 9 12 12 10 8 6 6 6 6 6 4 3 6 13 17 15 9 6 12 18 20 21 21 20 20 20 18 17 16 15 14 14 14
4 4 3 2 4 3 5 6 5 5 5 6 5 4 4 5 4 3 5 6 6 5 3 5 8 4 4 3 4 3 2 3 9 9 8 8 7 3 3 5 9 12 9 6 5 3 3 5 4 5 4 5 4 5 9 11 13 13 11 9 6 5 6 6 5 4 3 8 15 14 10 7 6 13 19 19 20 20 19 19 20 17 16 15 15 15 14 14
5 3 1 3 2 2 5 5 4 5 4 4 6 4 3 3 2 2 4 5 4 3 2 5 11 7 4 6 5 5 8 11 14 14 12 11 11 8 5 6 7 8 9 6 4 4 5 7 5 6 5 4 2 4 8 10 10 8 7 6 5 4 6 6 6 7 8 2 9 6 6 11 13 15 17 16 17 18 17 17 18 17 16 15 15 15 14 15
Wind_Direction
319 316 313 309 305 298 296 301 298 289 287 294 292 291 291 283 279 278 279 278 276 278 281 284 288 288 286 288 291 292 291 286 277 269 261 257 259 254 244 242 232 206 206 193 172 173 171 175 179 182 182 185 198 186 180 188 190 196 220 224 220 220 194 159 170 122 53 59 29 27 22 352 152 148 159 163 162 148 145 127 113 96 79 91 108 126 138 142
319 320 321 315 307 300 296 302 302 291 286 290 288 286 286 284 281 276 275 274 272 273 279 285 287 288 290 292 296 298 295 292 283 268 263 263 259 248 233 228 228 220 211 192 180 175 174 179 178 180 186 190 193 179 182 185 193 211 226 224 227 219 123 102 96 46 14 2 4 17 18 359 125 141 180 186 161 158 161 142 139 114 94 112 122 133 141 145
318 318 317 312 310 307 300 299 301 301 301 296 290 290 287 284 283 281 277 275 273 272 277 286 288 289 292 295 300 302 302 301 289 272 268 266 257 248 235 223 222 221 214 194 187 187 186 185 178 181 190 196 190 184 192 185 194 218 226 229 226 197 110 141 200 13 1 348 352 3 1 10 64 88 221 193 160 173 174 153 167 157 132 135 138 144 145 148
313 311 310 308 308 305 301 300 299 300 304 299 291 290 290 289 287 287 284 278 275 274 280 289 290 291 294 299 301 308 319 304 279 255 262 258 247 243 235 225 220 220 211 194 191 196 198 189 184 186 196 202 186 189 196 184 190 205 216 237 222 117 221 175 180 319 6 347 340 347 344 11 21 315 252 196 169 180 173 146 171 170 151 148 148 152 151 151
310 305 305 305 305 306 305 302 299 294 294 296 293 285 285 291 289 287 285 280 276 277 284 289 289 292 294 297 298 310 320 300 225 210 239 220 206 205 213 221 218 219 211 198 190 192 192 186 187 191 203 205 179 191 203 193 201 210 218 243 265 221 230 146 125 27 0 330 327 336 338 355 334 272 233 220 187 132 103 97 103 148 153 153 151 154 153 153
311 307 303 301 300 301 303 302 303 300 291 288 294 292 286 285 284 283 283 280 276 278 284 287 289 291 294 294 292 274 247 267 93 164 195 167 168 157 162 210 211 214 208 198 188 185 186 182 186 192 205 209 189 201 207 193 204 228 220 230 242 239 238 176 150 333 333 313 320 334 334 332 303 227 187 232 224 46 45 66 109 133 148 151 147 152 155 156
310 311 305 305 303 302 304 306 307 306 300 291 289 291 288 284 281 278 275 275 274 278 284 287 289 288 290 289 283 249 239 257 271 203 187 175 184 170 238 261 212 209 198 192 186 184 184 183 191 197 204 210 202 208 202 187 202 231 233 217 228 236 239 242 250 272 298 300 313 323 315 303 278 167 138 205 93 42 54 98 120 134 146 145 140 149 156 156
308 309 306 307 310 310 311 309 301 295 297 295 288 286 284 281 280 274 267 267 266 272 279 285 290 286 283 272 271 257 244 251 252 246 246 241 244 255 272 277 229 205 192 190 187 186 185 188 197 200 209 214 206 204 189 188 205 226 241 225 221 229 233 240 250 254 270 285 299 305 296 284 278 332 218 181 124 70 88 113 126 138 140 137 138 149 155 155
308 307 305 306 310 314 312 304 298 291 291 293 289 286 284 277 273 270 263 260 258 263 271 280 285 281 275 240 242 260 250 252 257 254 256 258 258 262 264 259 242 204 192 193 191 192 191 197 202 202 223 221 206 201 187 201 211 213 228 233 223 223 222 226 233 239 253 266 273 277 267 241 217 257 194 164 125 108 126 128 132 137 135 134 138 147 153 156
307 307 306 306 307 310 307 299 297 295 294 297 291 284 284 277 268 262 257 253 252 257 264 270 273 266 255 218 224 249 250 255 264 256 254 260 258 256 250 242 234 202 191 193 195 197 197 207 206 205 239 227 208 203 192 211 226 201 223 232 233 232 225 227 234 240 247 250 253 253 235 158 175 234 183 152 154 145 144 143 141 139 136 135 138 144 151 156
308 306 306 307 305 307 307 301 300 296 290 294 292 285 282 275 266 258 251 246 247 252 257 260 264 254 233 209 225 239 250 257 265 263 265 268 258 238 224 222 211 197 192 192 197 199 203 215 204 196 227 215 202 204 199 214 235 200 220 229 232 237 234 233 235 232 235 232 223 231 217 161 193 233 151 139 165 162 154 154 150 145 138 136 137 139 146 152
309 306 305 306 304 305 305 303 303 297 287 283 283 282 278 272 264 255 246 239 244 248 251 256 257 249 235 232 238 238 245 257 256 249 256 261 240 202 198 196 188 195 197 197 198 198 203 208 198 198 208 192 188 193 200 207 221 210 213 228 213 218 228 223 219 214 218 211 185 213 199 172 194 198 134 140 165 162 163 162 154 149 140 136 133 131 139 147
309 308 304 303 305 305 304 301 296 292 289 281 276 277 276 270 259 253 244 238 243 245 248 251 249 243 237 247 250 250 251 253 249 240 226 205 211 194 193 181 179 189 197 201 197 193 199 196 200 206 209 211 191 150 169 189 208 210 213 239 203 199 215 204 201 199 208 201 183 215 204 175 183 168 146 157 168 164 170 169 159 152 140 133 128 127 135 142
306 306 302 304 308 309 305 297 288 287 288 285 280 278 276 266 254 249 243 241 241 244 245 240 243 243 243 253 258 260 254 249 247 242 232 221 244 276 235 182 177 182 183 193 193 191 198 194 203 208 212 230 195 145 168 178 197 205 202 229 221 211 192 179 183 189 197 178 182 219 224 178 169 156 155 166 173 177 177 173 164 151 138 129 123 124 129 135
302 300 300 304 310 312 305 291 286 283 282 286 285 280 273 262 250 241 238 241 240 239 231 228 228 210 255 267 266 261 252 247 246 243 234 226 234 251 226 179 169 170 170 175 185 190 194 188 199 204 199 210 186 179 190 177 192 204 198 206 215 216 171 157 173 192 193 161 181 215 223 160 154 150 158 166 177 189 184 177 167 147 133 125 122 122 122 127
298 296 300 300 307 311 300 285 285 280 277 277 279 281 275 259 243 234 238 235 231 223 195 220 222 202 261 276 266 257 246 238 241 244 234 224 223 218 199 177 164 162 164 156 163 179 183 185 196 204 195 190 192 196 191 182 193 200 210 204 194 204 179 152 169 191 194 165 179 211 233 148 134 143 154 164 178 187 189 181 169 144 125 121 123 122 120 122
295 291 296 295 304 308 294 284 285 283 279 271 275 286 273 252 237 234 234 216 213 187 158 190 208 218 250 256 252 249 231 224 230 233 226 218 213 198 182 173 168 168 163 154 154 166 178 186 190 201 204 197 199 202 194 195 192 187 210 213 188 199 194 157 158 173 187 191 184 206 234 130 113 131 148 166 181 187 194 184 173 149 122 119 122 122 120 118
296 288 289 290 300 303 290 286 287 289 286 274 278 283 230 238 235 229 213 183 164 135 157 193 179 227 244 228 228 217 186 200 205 207 212 206 196 185 179 172 169 167 163 168 172 172 178 187 190 194 202 201 200 202 202 200 191 185 196 203 188 196 202 177 156 161 180 197 190 194 209 139 115 116 131 161 182 192 195 184 176 153 125 119 119 120 118 113
302 293 290 291 297 295 285 285 288 293 290 281 288 233 155 85 115 194 186 170 163 155 214 197 185 195 325 194 211 221 198 182 182 194 198 193 183 176 179 174 167 169 172 175 177 181 181 185 199 201 197 198 198 202 209 207 192 186 187 194 190 188 202 183 140 149 177 192 189 187 200 178 131 107 110 144 171 195 196 183 181 159 134 122 119 121 117 112
304 298 295 294 292 287 283 286 289 289 284 286 313 196 175 163 172 174 176 192 201 205 261 198 197 221 336 109 132 225 205 193 191 186 187 188 174 168 174 172 172 182 189 180 170 181 186 192 203 203 199 194 195 203 210 213 190 184 186 197 195 186 193 174 134 136 174 196 187 183 200 187 113 91 102 124 165 196 199 190 193 172 144 128 126 126 120 114
305 299 294 293 287 282 283 287 290 285 279 282 272 220 224 227 220 177 178 216 224 223 238 221 209 235 244 207 79 61 171 199 208 184 183 181 170 168 172 173 180 191 199 188 165 171 191 208 206 201 202 192 193 202 200 196 191 189 194 197 195 194 185 165 146 133 166 216 187 182 199 165 91 84 103 131 182 186 198 205 208 190 163 143 136 129 122 119
306 300 290 287 281 278 281 286 287 286 284 278 236 231 249 258 232 190 200 250 245 232 234 233 233 245 244 241 245 247 258 229 206 185 179 175 176 179 172 177 190 188 193 190 167 170 198 217 206 199 203 192 189 195 190 189 194 197 201 198 197 193 163 143 141 130 168 232 179 182 198 133 98 92 91 115 167 121 59 33 234 217 194 170 148 131 130 133
305 302 288 277 270 272 279 283 284 287 283 257 241 236 233 225 219 238 264 275 268 233 225 228 230 238 241 242 241 237 239 240 211 187 179 176 184 188 176 183 198 189 188 189 186 189 198 212 204 194 193 187 182 190 195 195 198 205 202 199 198 187 170 156 158 139 146 265 183 181 192 136 123 119 97 101 107 80 61 69 64 74 184 176 147 137 148 151
303 304 286 267 262 269 277 281 284 286 272 249 242 224 204 215 245 301 265 263 274 226 216 223 222 229 234 234 234 224 222 230 220 191 182 182 186 188 186 190 197 196 192 195 202 206 206 203 191 184 184 186 184 186 196 198 198 205 205 208 197 183 189 170 152 147 134 180 191 179 182 165 161 155 128 116 112 104 90 88 81 82 113 152 143 140 154 160
302 306 288 267 259 264 275 283 283 271 253 248 234 200 189 216 270 309 256 253 261 206 207 214 214 228 224 207 207 206 210 222 220 200 182 187 188 184 191 195 198 203 194 196 204 212 216 187 173 183 190 193 192 188 196 199 196 199 206 221 207 180 188 149 142 163 173 183 189 193 198 175 169 166 140 134 135 124 108 103 95 85 101 142 141 128 129 140
301 305 290 268 255 261 276 286 275 248 238 230 200 179 179 218 266 265 238 256 244 167 167 188 198 212 200 187 185 185 203 218 213 203 184 191 193 187 190 190 200 210 194 192 205 220 208 168 171 191 191 192 197 194 197 199 203 197 193 210 219 184 188 163 160 186 199 181 177 201 221 177 165 170 143 142 144 129 116 103 92 81 86 111 120 117 125 125
300 302 286 264 251 254 264 265 248 234 231 198 181 179 194 243 277 237 214 246 229 158 144 168 186 187 186 184 177 177 200 185 188 196 190 190 191 196 205 187 192 209 188 183 207 214 183 170 184 194 189 193 199 197 195 198 214 196 171 189 204 199 193 181 185 204 204 140 151 198 228 218 180 168 143 153 151 129 117 100 88 82 78 83 89 93 112 116
298 298 276 255 245 243 239 245 253 239 222 198 186 198 225 252 257 207 222 236 168 145 143 155 169 169 173 175 174 182 180 149 168 188 187 189 187 194 212 194 189 193 179 187 202 178 170 180 187 190 194 197 199 197 187 195 217 179 159 186 200 205 210 201 201 209 203 179 181 195 214 226 184 151 142 166 161 130 114 102 91 89 84 82 80 78 92 102
295 293 269 246 241 247 246 246 251 237 222 215 204 210 226 238 213 201 243 244 157 145 134 143 159 167 163 167 180 193 188 168 181 172 174 188 188 193 215 199 194 187 183 202 207 166 172 190 188 189 199 199 200 198 181 194 211 152 158 188 195 206 221 221 218 210 190 209 213 187 191 215 179 148 161 178 168 135 114 102 94 98 93 87 85 81 89 96
288 284 266 244 240 253 259 253 251 238 226 224 207 203 216 206 193 202 221 223 158 137 123 145 160 167 164 165 184 198 197 189 162 155 167 183 186 196 215 200 200 195 184 207 217 186 170 189 193 196 205 199 195 189 178 193 199 150 169 192 191 202 214 219 230 225 195 210 219 186 187 213 196 159 166 163 149 122 111 106 100 104 97 87 85 84 90 97
285 279 258 241 237 237 244 253 245 223 207 215 199 192 203 191 210 219 181 152 152 131 134 156 156 158 171 175 179 191 198 185 154 158 168 175 181 192 196 190 201 197 183 201 216 194 170 186 195 199 207 198 180 172 177 190 193 180 189 193 191 195 200 205 206 216 214 210 203 176 183 214 213 165 149 128 119 103 102 109 108 108 102 93 88 86 88 92
284 274 246 232 228 220 220 224 210 185 184 205 200 198 197 183 213 226 168 157 190 147 130 156 154 164 184 190 180 179 189 179 165 170 170 170 181 190 191 189 189 191 190 192 195 189 185 192 187 188 203 198 182 176 180 187 194 203 199 190 193 188 188 204 196 198 213 197 165 162 179 207 184 125 130 124 115 105 99 103 109 111 109 105 98 92 87 85
280 266 241 231 229 223 226 224 211 207 205 209 215 212 210 197 199 212 199 175 154 93 88 150 165 178 190 198 186 179 185 176 171 177 175 176 181 185 195 194 188 195 198 187 187 186 188 192 189 188 193 199 202 194 182 186 194 203 201 190 194 188 184 199 194 193 202 177 137 160 180 186 132 118 129 119 110 110 104 101 108 112 110 107 100 95 91 86
273 261 248 244 238 231 229 222 220 226 218 218 224 209 209 211 193 203 213 176 125 132 160 155 190 182 188 203 188 177 187 177 173 181 178 179 185 186 193 192 190 199 197 186 192 189 189 192 190 193 187 190 206 208 189 186 193 201 207 201 202 200 190 197 198 197 197 169 136 161 183 180 152 129 116 112 114 114 109 109 110 108 107 103 97 91 87 82
270 265 257 250 243 238 230 221 217 214 204 218 223 203 201 207 193 200 207 173 124 196 183 197 220 192 184 199 190 181 192 182 173 186 186 183 190 187 188 190 191 197 197 189 191 191 201 198 179 189 193 185 198 211 196 187 192 200 210 210 209 210 198 188 204 206 185 159 144 159 159 104 120 121 113 116 118 115 116 117 112 106 104 100 93 89 85 81
278 269 259 253 245 238 224 212 205 195 194 213 214 202 207 211 188 155 172 177 0 346 317 215 204 204 183 182 185 186 199 200 179 186 190 190 195 189 187 189 189 196 199 192 185 188 204 192 164 176 194 191 198 205 196 195 192 183 205 208 208 231 214 172 122 61 149 167 157 154 135 112 126 140 140 136 128 129 128 120 113 108 105 100 93 91 87 83
276 261 256 252 241 229 207 196 189 181 193 217 218 209 212 215 216 84 72 133 57 22 323 217 185 208 196 183 182 183 190 196 184 187 190 192 196 192 190 189 189 197 202 199 197 193 207 190 162 177 191 189 198 200 195 208 207 182 199 197 177 270 236 188 177 166 184 188 167 170 171 160 166 163 155 153 143 139 133 121 118 112 105 101 96 94 90 85
264 266 260 242 220 213 196 182 176 176 192 218 224 225 225 215 209 212 35 344 10 36 7 227 188 229 206 190 185 181 182 185 185 190 192 192 192 191 193 188 187 196 201 205 205 193 211 203 165 186 192 175 188 197 194 207 217 217 205 189 184 205 197 196 201 188 193 192 158 173 181 177 184 171 165 169 157 144 137 128 126 117 110 107 102 99 92 84
251 256 249 208 193 200 189 169 169 180 200 215 216 220 228 223 212 219 292 298 318 21 75 246 273 293 252 203 190 183 183 185 185 188 192 188 178 188 197 190 185 194 198 204 203 179 206 218 175 183 184 167 178 200 195 192 206 227 211 189 200 216 196 197 205 196 201 193 162 173 185 188 186 167 170 173 161 150 145 137 129 120 116 113 104 97 87 79
223 216 208 171 180 185 169 159 169 190 209 213 217 218 219 224 220 230 265 272 293 18 102 257 271 289 311 250 203 192 189 191 190 190 196 185 168 186 203 194 185 191 194 200 204 181 198 222 188 163 165 171 184 199 201 189 184 204 204 188 192 206 202 198 201 214 218 202 180 180 186 178 139 140 165 167 158 152 145 135 127 120 118 112 103 99 91 85
211 209 162 140 171 161 153 158 181 203 209 215 225 225 219 227 232 233 263 249 247 180 200 271 280 277 294 302 236 197 192 196 194 196 196 184 180 195 199 193 188 187 189 198 202 188 198 214 190 164 173 190 191 192 204 199 189 191 198 196 192 191 195 192 189 204 223 213 195 190 185 156 93 132 158 158 154 146 138 131 125 122 121 115 107 105 100 93
214 193 91 143 160 152 155 176 196 198 209 216 221 226 228 243 250 257 265 227 222 214 237 268 276 272 275 277 264 226 207 199 194 196 192 187 195 193 178 186 193 189 187 197 196 177 191 218 192 177 183 184 169 162 233 227 198 193 199 202 194 193 203 199 187 186 197 200 188 199 195 145 119 173 152 145 146 140 135 131 124 123 124 117 110 102 95 89
202 115 80 144 152 151 178 209 186 195 218 216 221 232 231 235 247 256 252 225 219 231 260 267 268 265 264 261 266 250 222 202 194 193 184 187 190 164 165 182 190 190 189 197 191 162 113 218 193 181 178 158 117 115 171 237 205 199 202 199 194 196 205 211 199 179 183 186 179 198 198 143 145 166 139 135 140 137 134 131 127 126 123 116 110 102 96 91
200 109 105 148 149 155 224 213 179 200 208 207 222 226 226 244 254 253 243 223 213 259 263 266 262 257 263 273 277 248 218 196 194 189 176 181 170 123 164 185 190 194 192 191 182 167 184 208 188 180 175 164 156 167 183 201 206 207 196 190 197 197 197 206 202 183 191 195 193 205 190 136 139 148 136 137 140 135 130 131 130 128 123 117 111 104 99 93
220 110 115 155 166 201 247 252 236 210 195 203 222 221 225 237 238 247 256 246 244 261 256 259 263 264 270 279 281 252 217 192 181 170 152 160 151 134 178 191 201 202 189 178 175 170 190 212 193 194 188 182 184 182 181 186 193 202 189 182 194 195 190 191 191 196 197 186 199 218 164 129 135 137 136 141 139 131 129 131 130 127 124 118 111 105 99 91
262 108 121 160 190 229 244 271 281 232 201 200 211 224 228 226 221 238 250 253 256 255 253 262 271 276 276 267 260 236 205 189 178 164 158 157 141 137 173 184 201 198 145 143 169 167 169 203 43 196 187 187 183 161 153 178 181 186 182 179 185 190 189 190 197 205 183 170 199 193 134 138 149 143 139 140 137 133 133 133 130 126 122 115 109 104 98 91
272 111 146 162 185 220 227 232 231 234 222 202 201 220 221 219 222 214 213 235 245 241 247 260 260 261 266 249 228 205 189 187 182 170 162 152 127 109 147 173 188 169 130 148 169 169 177 167 58 49 61 60 92 86 81 163 173 176 173 171 172 172 182 194 202 188 163 171 192 147 136 151 163 155 145 141 141 140 138 134 131 125 120 115 110 105 98 91
254 85 174 180 184 204 206 208 207 216 226 208 212 237 217 208 203 197 204 231 238 235 239 254 250 246 251 249 231 195 183 186 180 166 152 142 139 131 139 161 167 156 157 167 173 192 191 171 123 89 82 65 63 81 93 110 122 133 139 147 153 152 175 192 191 164 165 188 178 145 143 152 157 153 146 142 143 140 134 130 127 122 119 117 112 107 101 92
269 306 194 194 217 216 187 179 188 203 216 216 221 235 228 205 190 196 211 229 240 232 220 230 245 243 249 260 254 205 184 178 166 158 151 146 151 152 147 152 159 168 175 167 161 204 199 150 143 135 102 70 57 72 100 113 108 96 89 98 118 117 120 143 127 106 129 137 123 126 114 88 113 133 133 132 132 128 124 123 121 119 117 116 114 110 103 95
300 327 321 206 233 235 191 183 189 198 203 207 216 223 229 216 188 193 211 226 245 233 215 223 229 232 270 269 237 209 191 173 161 161 157 149 153 165 161 150 153 166 174 166 158 204 215 159 159 152 107 70 61 81 107 120 113 99 80 70 90 106 92 92 97 81 85 114 119 118 109 83 75 107 115 119 121 120 122 121 117 116 116 116 116 111 105 101
308 323 343 247 235 207 191 197 204 207 201 200 209 215 215 207 193 201 214 219 244 266 244 183 169 174 330 324 178 169 29 107 133 133 134 138 138 147 157 149 157 163 163 156 159 182 179 151 171 197 152 86 68 109 121 121 112 99 82 60 61 96 91 83 88 42 17 133 132 127 129 138 128 115 114 116 117 117 119 119 116 116 119 120 117 113 110 107
318 317 311 255 249 205 195 197 200 212 215 200 204 214 215 204 203 246 227 213 223 272 351 123 146 147 36 43 71 48 50 80 92 90 88 91 88 82 88 102 127 155 154 146 149 155 148 145 169 197 162 112 109 138 132 137 134 111 82 49 35 79 98 88 78 32 359 104 141 134 126 134 137 128 119 117 116 115 115 117 117 119 122 120 117 116 115 113